Location: Unspecified
(52.0000°N, 4.4000°E)
Time: 21:58:23
(UTC+00:00)

Daily predictions for brighter satellites

Satellite Brightness Start Highest point End
(mag) Time Altitude Azimuth Time Altitude Azimuth Time Altitude Azimuth
Cosmos 1459 Rocket 4.1 17:25:59 10° S 17:32:19 80° E 17:38:43 10° NNE
Cosmos 2322 Rocket 4.1 17:31:02 10° N 17:33:45 13° NNE 17:36:28 10° NE
USA 281 3.4 17:29:18 10° SSE 17:35:53 83° WSW 17:42:31 10° NNW
ADEOS Rocket 3.9 17:29:17 10° SE 17:36:17 42° ENE 17:42:48 10° N
Cosmos 1802 Rocket 4.1 17:30:05 10° S 17:36:26 69° E 17:42:46 10° NNE
ADEOS 3.8 17:32:19 10° SE 17:37:17 48° ENE 17:42:17 10° N
Okean O Rocket 3.5 17:36:24 10° ENE 17:38:06 12° NE 17:39:48 10° NNE
Resurs 01 Rocket 3.6 17:37:47 10° ENE 17:38:37 10° NE 17:39:26 10° NE
ATLAS 2AS CENTAUR R/B 3.1 17:32:35 10° SW 17:40:02 74° NW 17:47:09 10° NE
Cosmos 2221 4.2 17:37:50 10° NNE 17:40:10 14° ENE 17:42:28 10° E
Cosmos 1697 Rocket 2.8 17:39:03 10° NNW 17:44:40 58° NE 17:50:15 10° SE
Cosmos 1833 Rocket 3.5 17:40:14 10° SSE 17:45:07 31° ESE 17:50:01 10° NE
Cosmos 2082 Rocket 3.9 17:45:42 10° ESE 17:46:46 11° E 17:47:49 10° E
CZ-4B R/B 3.5 17:44:58 10° SE 17:48:47 37° ENE 17:52:43 10° N
Cosmos 1437 Rocket 4.0 17:46:37 10° SE 17:49:38 21° E 17:52:38 10° NE
ATLAS CENTAUR R/B 3.0 17:41:32 10° WSW 17:49:49 73° NNW 17:54:10 10° ENE
Helios 1A 3.1 17:46:15 10° NNE 17:50:19 53° E 17:54:21 10° S
Cosmos 676 Rocket 4.4 17:45:47 10° S 17:50:36 41° ESE 17:55:26 10° NE
USA 267 4.4 17:46:06 10° SSE 17:52:17 44° SW 17:58:31 10° WNW
Cosmos 2058 2.9 17:49:26 10° S 17:53:23 56° E 17:57:23 10° NNE
Cosmos 468 Rocket 4.0 17:49:30 10° NNW 17:54:41 86° WSW 17:59:49 10° SSE
Cosmos 1812 2.5 17:54:35 10° N 17:58:16 80° E 18:01:55 10° SSE
Okean 1-7 Rocket 4.1 17:56:02 10° SSE 18:00:12 37° E 18:04:20 10° NNE
Cosmos 2360 Rocket 4.1 17:59:05 10° NNW 18:02:07 14° NNE 18:05:08 10° NE
GP-B 3.0 17:59:50 10° S 18:04:13 75° E 18:08:39 10° N
USA 229 DEB 4.1 17:56:56 10° NW 18:04:16 86° SW 18:12:15 10° SE
USA 229 4.1 17:57:02 10° NW 18:04:22 87° SW 18:12:22 10° SE
YAOGAN 3 4.5 18:03:10 10° SSE 18:07:28 80° ENE 18:11:48 10° NNW
SL-08 R/B 3.5 18:03:14 10° NNE 18:07:58 51° E 18:12:33 10° S
Cosmos 407 Rocket 4.1 18:04:10 10° SW 18:09:14 60° WNW 18:14:24 10° NNE
Cosmos 1782 3.0 18:05:48 10° N 18:09:35 46° ENE 18:13:20 10° SSE
Meteor 2-8 Rocket 4.4 18:04:00 10° S 18:10:05 72° E 18:16:10 10° NNE
Cosmos 2233 Rocket 4.0 18:05:13 10° S 18:11:29 71° E 18:17:48 10° NNE
BREEZE-M DEB (TANK) 3.9 17:58:45 10° WSW 18:11:46 58° SSE 18:14:59 16° E
Cosmos 2333 Rocket 4.1 18:09:30 10° NNW 18:12:44 15° NNE 18:15:50 10° NE
COSMO-SKYMED 1 2.7 18:08:36 10° NNE 18:12:58 83° WNW 18:17:19 10° SSW
SJ-6B 3.3 18:11:45 10° SE 18:15:04 33° ENE 18:18:22 10° N
BREEZE-M DEB (TANK) 2.9 18:10:44 10° WSW 18:15:28 51° S 18:17:04 20° ESE
Elektron 3 3.9 18:14:18 10° NW 18:17:36 73° SW 18:20:20 11° SE
Meteor 1-29 4.2 18:20:53 13° NNE 18:20:53 13° NNE 18:21:16 10° NNE
Cosmos 1190 Rocket 4.1 18:14:59 10° SSW 18:20:13 80° WNW 18:25:28 10° NNE
SPOT 1/Viking Rocket 4.0 18:16:39 10° SE 18:21:20 37° ENE 18:26:03 10° N
CZ-4 R/B 1.6 18:22:28 10° SE 18:26:13 45° ENE 18:30:03 10° N
GEOS 3 Rocket 3.8 18:21:05 10° SE 18:26:28 79° SW 18:31:51 10° NW
SL-4 R/B 2.3 18:27:42 10° W 18:32:07 71° SSW 18:35:01 22° ESE
Meteor PRIRODA 4.4 18:30:11 10° S 18:33:33 51° W 18:36:56 10° NNW
USA 186 2.8 18:34:10 28° ENE 18:34:11 28° ENE 18:37:03 10° N
CSL-04 Rocket 4.2 18:30:43 14° SE 18:34:50 37° ENE 18:39:48 10° N
Cosmos 1850 Rocket 4.4 18:30:38 10° S 18:35:25 39° ESE 18:40:16 10° NE
Cosmos 2061 Rocket 4.3 18:31:28 10° SSW 18:37:40 72° WNW 18:43:54 10° N
BREEZE-M DEB (TANK) 4.2 18:34:02 10° WSW 18:38:23 55° S 18:47:31 18° ESE
DMSP B5D1-3 4.5 18:34:46 10° NNE 18:39:53 63° ESE 18:44:59 10° S
Cosmos 1464 Rocket 4.3 18:35:11 10° SSE 18:40:58 41° E 18:46:43 10° NNE
Lacrosse 4 Rocket 3.8 18:42:23 10° N 18:43:01 10° NNE 18:43:40 10° NNE
Lacrosse 5 1.8 18:38:02 10° SW 18:43:08 78° SSE 18:46:16 24° ENE
Cosmos 44 4.0 18:38:32 10° NW 18:43:35 42° NE 18:45:48 27° E
Meteor 2-3 Rocket 3.7 18:38:23 10° S 18:44:08 69° E 18:49:53 10° NNE
BlueWalker 3 1.9 18:41:05 10° WSW 18:44:50 65° SSE 18:46:11 36° E
Cosmos 2278 4.3 18:42:13 10° NNW 18:47:28 37° NE 18:49:38 27° E
Cosmos 1378 3.7 18:44:21 10° N 18:47:04 33° NE 18:47:04 33° NE
Cosmos 841 Rocket 3.9 18:42:29 10° NNW 18:47:40 66° WSW 18:52:45 10° S
Cosmos 2292 Rocket 4.3 18:44:21 10° NNW 18:48:14 58° W 18:53:17 10° S
Cosmos 2369 3.6 18:43:14 10° NNW 18:48:53 69° ENE 18:53:07 18° SE
Cosmos 968 Rocket 4.1 18:44:33 10° SSE 18:49:11 33° ESE 18:51:23 23° ENE
YAOGAN 1 3.6 18:45:27 10° S 18:49:36 47° W 18:53:47 10° NNW
Cosmos 1933 3.3 18:45:49 10° NNW 18:49:50 82° W 18:53:49 10° S
Cosmos 1812 Rocket 4.0 18:45:51 10° NNW 18:50:08 63° W 18:54:25 10° S
Cosmos 1980 Rocket 2.1 18:47:08 10° NNW 18:52:47 85° ENE 18:57:49 13° SSE
Cosmos 2219 Rocket 3.9 18:53:09 10° NNW 18:56:35 16° NNE 18:58:02 15° NE
CZ-3B R/B 1.9 18:53:43 10° W 18:56:58 52° N 18:57:44 39° NE
SL-16 R/B 3.0 18:52:35 10° NNW 18:57:44 34° NE 18:59:14 29° ENE
NOSS 2-1 (D) 4.4 18:54:48 10° NNW 18:58:05 31° NNE 18:58:41 29° NE
USA 215 3.5 18:53:47 20° ENE 18:58:28 66° NNW 19:04:55 10° W
Feng Yun 1-1 Rocket 4.2 18:53:40 10° SSE 18:59:16 67° ENE 19:04:45 10° NNW
NOSS 2-1 (C) 4.2 18:56:43 10° NNW 18:59:56 32° NE 19:00:18 31° NE
MOS 1-B 4.3 18:54:39 10° SSE 19:00:24 72° ENE 19:06:12 10° NNW
Resurs 1-3 3.5 18:56:03 10° SSE 19:00:24 87° WSW 19:04:48 10° NNW
Okean-O 3.6 19:01:05 29° NE 19:01:05 29° NE 19:04:29 10° N
CZ-4B R/B 3.1 18:56:28 10° SSE 19:01:50 81° ENE 19:07:20 10° NNW
Cosmos 1862 3.2 18:58:51 10° S 19:02:37 58° E 19:06:26 10° NNE
ATLAS 5 CENTAUR R/B 3.6 18:59:03 10° WNW 19:03:36 35° SW 19:09:04 10° S
Cosmos 1758 Rocket 4.3 19:04:23 10° SSW 19:08:45 54° WNW 19:13:07 10° N
Cosmos 1072 Rocket 4.3 19:03:42 10° S 19:09:45 69° E 19:15:50 10° NNE
Cosmos 1891 Rocket 4.5 19:03:54 10° S 19:10:22 85° E 19:16:49 10° N
Cosmos 1842 Rocket 3.9 19:06:18 10° N 19:10:00 41° NE 19:10:00 41° NE
PSLV R/B 3.4 19:11:35 66° SE 19:11:58 75° ENE 19:15:36 10° N
NOSS 2-1 (E) 4.1 19:09:30 10° NW 19:12:52 36° NE 19:12:52 36° NE
Terra 3.9 19:14:46 13° NNE 19:14:46 13° NNE 19:15:46 10° NNE
Nadezhda 4 Rocket 3.9 19:07:16 10° N 19:13:35 75° ENE 19:19:46 10° SSE
Okean O Rocket 1.5 19:12:07 40° SE 19:13:36 69° ENE 19:17:59 10° N
Resurs 01 Rocket 1.6 19:13:28 51° ESE 19:14:10 58° ENE 19:18:31 10° N
IKONOS-2 4.4 19:13:29 10° NNE 19:17:41 87° WNW 19:21:51 10° SSW
Cosmos 2221 2.4 19:13:53 10° NNW 19:18:09 82° W 19:20:45 23° S
BREEZE M DEB (TANK) 2.8 19:16:57 10° W 19:19:00 36° SW 19:19:00 36° SW
Cosmos 2322 Rocket 3.0 19:14:35 10° NNW 19:19:41 33° NE 19:20:09 32° NE
ADEOS Rocket 4.1 19:14:02 10° S 19:21:35 57° W 19:28:37 10° NNW
SPOT 5 4.4 19:23:50 19° NNE 19:23:50 19° NNE 19:25:38 10° N
ASTEX 1 3.8 19:17:26 10° NNE 19:21:09 41° NE 19:21:09 41° NE
Cosmos 1741 Rocket 3.9 19:17:51 10° SSW 19:23:09 85° ESE 19:28:29 10° NNE
Meteor 1-27 Rocket 4.4 19:18:58 10° N 19:24:16 37° ENE 19:24:16 37° ENE
Cosmos 1437 Rocket 4.1 19:21:28 10° SW 19:25:11 40° WNW 19:28:53 10° N
Cosmos 2237 4.4 19:19:57 10° NNW 19:25:31 50° NE 19:26:17 46° ENE
IRIDIUM 104 4.2 19:23:00 10° S 19:28:14 87° E 19:33:30 10° N
Cosmos 1697 Rocket 4.5 19:23:27 10° NW 19:28:20 31° WSW 19:33:12 10° SSW
Cosmos 1833 Rocket 3.3 19:23:14 10° SW 19:28:46 56° NW 19:34:21 10° NNE
Cosmos 2082 Rocket 2.1 19:24:08 10° SSW 19:29:38 59° ESE 19:30:54 47° ENE
ATLAS 2AS CENTAUR R/B 3.9 19:25:21 10° W 19:32:01 36° NNW 19:36:44 17° NE
Cosmos 1814 Rocket 4.2 19:26:54 10° NNW 19:32:12 72° WSW 19:34:47 30° S
COSMOS 2406 3.2 19:28:04 10° S 19:33:36 57° ESE 19:33:52 56° ESE
IRIDIUM 114 4.3 19:32:10 10° S 19:37:23 80° W 19:42:39 10° N
CSL-04 Debris 4.3 19:36:00 20° S 19:39:50 72° WSW 19:45:14 10° NNW
COSMOS 2428 4.5 19:40:52 10° NNW 19:44:46 18° NNE 19:44:52 18° NNE
Cosmos 2360 Rocket 2.9 19:42:34 10° NNW 19:47:16 37° NNE 19:47:16 37° NNE
IRS-1C Rocket 4.4 19:51:44 51° NNE 19:51:44 51° NNE 19:56:02 10° N
ATLAS CENTAUR R/B 2.9 19:46:16 10° WNW 19:51:22 40° NNW 19:51:22 40° NNW
Cosmos 2333 Rocket 3.0 19:53:21 10° NNW 19:57:51 37° NNE 19:57:51 37° NNE
SL-24 R/B - RUBIN 2 4.2 19:54:45 10° SW 20:00:36 87° SE 20:01:33 66° NE
CZ-4 R/B 3.8 19:58:08 10° SW 20:01:08 21° W 20:04:12 10° NW
Cosmos 2208 Rocket 4.1 19:57:00 10° NNW 20:01:41 68° N 20:01:41 68° N
USA 186 4.4 20:07:09 21° WNW 20:07:09 21° WNW 20:09:04 10° NW
Cosmos 2034 Rocket 4.1 20:00:22 10° SSW 20:06:38 77° WNW 20:12:59 10° N
MOS 1 4.2 20:10:30 84° NNW 20:10:30 84° NNW 20:15:58 10° NNW
SL-4 R/B 3.9 20:06:49 10° W 20:09:56 28° SW 20:09:56 28° SW
Cosmos 1570 Rocket 4.4 20:14:03 10° NNW 20:18:52 60° W 20:18:52 60° W
Cosmos 2026 Rocket 4.0 20:13:18 10° NNW 20:19:23 72° W 20:20:13 64° SW
Cosmos 2237 Rocket 4.2 20:18:01 10° NNW 20:20:56 16° NNE 20:20:56 16° NNE
Lacrosse 4 Rocket 3.9 20:19:18 10° NNW 20:20:12 15° NNW 20:20:12 15° NNW
Gbstr 26 Del rocket 4.3 20:16:45 10° SW 20:22:00 58° SSW 20:22:00 58° SSW
BlueWalker 3 4.4 20:19:23 10° W 20:20:40 20° W 20:20:40 20° W
NOSS 3-4 (A) 4.0 20:16:45 10° NW 20:23:06 56° NNE 20:23:06 56° NNE
NOSS 3-4 (C) 4.0 20:16:50 10° NW 20:23:11 56° NNE 20:23:11 56° NNE
Cosmos 44 4.2 20:19:54 10° NW 20:24:11 46° W 20:24:11 46° W
Lacrosse 5 2.8 20:21:25 10° W 20:25:29 46° NW 20:25:29 46° NW
Cosmos 968 Rocket 4.4 20:25:44 10° SW 20:30:48 47° WNW 20:31:34 44° NNW
Cosmos 2278 4.3 20:26:20 10° NW 20:31:34 52° WSW 20:31:34 52° WSW
MOS 1-B Rocket 4.3 20:35:24 72° N 20:35:24 72° N 20:41:58 10° NNW
Cosmos 1980 Rocket 4.5 20:32:12 10° WNW 20:36:04 19° W 20:39:39 11° SW
Okean-O 4.5 20:38:34 28° NW 20:38:34 28° NW 20:41:07 10° NNW
Aureole 3 Rocket 4.3 20:39:54 61° NNW 20:39:54 61° NNW 20:46:19 10° N
USA 215 3.5 20:41:07 60° N 20:41:07 60° N 20:47:32 10° WNW
Cosmos 2219 Rocket 3.6 20:36:35 10° NNW 20:39:45 31° N 20:39:45 31° N
SL-16 R/B 2.9 20:36:35 10° NW 20:41:06 51° WNW 20:41:06 51° WNW
Terra 4.1 20:53:28 18° NNW 20:53:28 18° NNW 20:54:42 10° NNW
Okean O Rocket 4.2 20:49:29 16° WSW 20:50:21 17° W 20:53:13 10° NW
Resurs 01 Rocket 4.0 20:50:57 20° W 20:50:59 20° W 20:54:13 10° NW
Cosmos 2322 Rocket 3.5 20:58:31 10° NW 21:01:58 37° NW 21:01:58 37° NW
Cosmos 2082 Rocket 3.8 21:08:58 10° WSW 21:12:53 31° WNW 21:12:53 31° WNW
ATLAS 2AS CENTAUR R/B 4.0 21:18:22 10° NW 21:24:09 33° N 21:24:09 33° N
Cosmos 2360 Rocket 4.1 21:26:34 10° NW 21:29:02 26° NW 21:29:02 26° NW
Cosmos 2333 Rocket 4.3 21:37:40 10° NW 21:39:51 23° NW 21:39:51 23° NW
